Lafayette, IN

3:23 PM EDT on May 23, 2018 (GMT -0400)
Purdue Univ

Weather History for KLAF - November, 2012

Change the Weather History Date:

Thursday, November 22, 2012

  Actual Average Record
Temperature  
Mean Temperature 49 °F 40 °F  
Max Temperature 61 °F 48 °F 70 °F (2010)
Min Temperature 36 °F 32 °F 8 °F (2015)
Degree Days  
Heating Degree Days 16 25  
Month to date heating degree days 514 448  
Since 1 July heating degree days 1095 882  
Cooling Degree Days 0 0  
Month to date cooling degree days 0 0  
Year to date cooling degree days 1181 982  
Moisture  
Dew Point 40 °F    
Average Humidity 74    
Maximum Humidity 100    
Minimum Humidity 47    
Precipitation  
Precipitation 0.11 in 0.11 in 1.04 in (1963)
Month to date precipitation 0.79 2.16  
Year to date precipitation 27.69 33.26  
Sea Level Pressure  
Sea Level Pressure 30.09 in    
Wind  
Wind Speed 6 mph (SSW)    
Max Wind Speed 18 mph    
Max Gust Speed 25 mph    
Visibility 5 miles    
Events Rain    
T = Trace of Precipitation, MM = Missing Value Source: NWS Daily Summary

Daily Weather History Graph

Daily Weather History Graph

Search for Another Location

Airport or City:

Astronomy

Nov. 22, 2012 Rise Set
Actual Time 7:42 AM EST 5:25 PM EST
Civil Twilight 7:12 AM EST 5:55 PM EST
Nautical Twilight 6:39 AM EST 6:28 PM EST
Astronomical Twilight 6:06 AM EST 7:00 PM EST
Moon 2:11 PM EST (11/22) 2:00 AM EST (11/22)
Length of Visible Light 10h 42m
Length of Day
9h 42m
Waxing Gibbous, 71% of the Moon is Illuminated
Nov 22
Waxing Gibbous
Nov 28
Full
Dec 6
Last Quarter
Dec 13
New
Dec 20
First Quarter

Hourly Weather History & Observations

Time (EST) Temp. Windchill Dew Point Humidity Pressure Visibility Wind Dir Wind Speed Gust Speed Precip Events Conditions
12:03 AM 39.2 °F - 39.2 °F 100% 30.18 in 2.5 mi Calm Calm - N/A   Clear
12:13 AM 41.0 °F - 39.2 °F 93% 30.18 in 3.0 mi Calm Calm - N/A   Clear
12:33 AM 39.2 °F - 39.2 °F 100% 30.17 in 2.5 mi Calm Calm - N/A   Clear
12:54 AM 39.9 °F - 39.0 °F 97% 30.18 in 2.5 mi Calm Calm - N/A   Clear
1:10 AM 37.4 °F - 37.4 °F 100% 30.17 in 1.8 mi Calm Calm - N/A   Clear
1:18 AM 41.0 °F - 39.2 °F 93% 30.17 in 2.5 mi Calm Calm - N/A   Clear
1:25 AM 39.2 °F - 39.2 °F 100% 30.16 in 3.0 mi Calm Calm - N/A   Clear
1:33 AM 37.4 °F - 37.4 °F 100% 30.16 in 1.8 mi Calm Calm - N/A   Partly Cloudy
1:46 AM 37.4 °F - 37.4 °F 100% 30.16 in 1.0 mi Calm Calm - N/A   Mist
1:52 AM 39.2 °F - 39.2 °F 100% 30.16 in 2.0 mi Calm Calm - N/A   Partly Cloudy
1:54 AM 39.0 °F - 39.0 °F 100% 30.16 in 2.5 mi Calm Calm - N/A   Partly Cloudy
2:15 AM 39.2 °F - 39.2 °F 100% 30.16 in 3.0 mi Calm Calm - N/A   Clear
2:54 AM 39.9 °F - 37.9 °F 93% 30.16 in 4.0 mi Calm Calm - N/A   Clear
3:54 AM 39.0 °F - 37.9 °F 96% 30.15 in 4.0 mi Calm Calm - N/A   Clear
4:54 AM 37.0 °F - 37.0 °F 100% 30.15 in 3.0 mi Calm Calm - N/A   Clear
5:54 AM 39.0 °F - 37.9 °F 96% 30.15 in 3.0 mi Calm Calm - N/A   Clear
6:27 AM 37.4 °F - 37.4 °F 100% 30.14 in 2.5 mi Calm Calm - N/A   Clear
6:42 AM 37.4 °F - 37.4 °F 100% 30.14 in 1.5 mi Calm Calm - N/A   Clear
6:49 AM 37.4 °F - 37.4 °F 100% 30.14 in 3.0 mi Calm Calm - N/A   Clear
6:54 AM 37.9 °F - 37.0 °F 97% 30.14 in 2.5 mi Calm Calm - N/A   Clear
7:06 AM 37.4 °F 34.9 °F 37.4 °F 100% 30.13 in 1.8 mi SSW 3.5 mph - N/A   Clear
7:28 AM 41.0 °F 37.1 °F 39.2 °F 93% 30.13 in 4.0 mi SSW 5.8 mph - N/A   Clear
7:54 AM 42.1 °F 38.4 °F 39.9 °F 92% 30.13 in 3.0 mi SSW 5.8 mph - N/A   Clear
8:54 AM 45.0 °F 41.8 °F 42.1 °F 90% 30.13 in 4.0 mi SSW 5.8 mph - N/A   Clear
9:54 AM 50.0 °F - 44.1 °F 80% 30.12 in 5.0 mi SW 6.9 mph - N/A   Haze
10:54 AM 53.1 °F - 45.0 °F 74% 30.11 in 6.0 mi SSW 6.9 mph 17.3 mph N/A   Haze
11:54 AM 55.9 °F - 44.1 °F 64% 30.08 in 7.0 mi SSW 12.7 mph 20.7 mph N/A   Clear
12:54 PM 60.1 °F - 43.0 °F 53% 30.04 in 10.0 mi SW 15.0 mph 20.7 mph N/A   Clear
1:54 PM 60.1 °F - 42.1 °F 51% 30.01 in 10.0 mi SW 13.8 mph 19.6 mph N/A   Clear
2:54 PM 61.0 °F - 41.0 °F 48% 29.99 in 10.0 mi SSW 12.7 mph 21.9 mph N/A   Mostly Cloudy
3:54 PM 59.0 °F - 39.9 °F 49% 29.97 in 10.0 mi SSW 10.4 mph 17.3 mph N/A   Scattered Clouds
4:54 PM 59.0 °F - 41.0 °F 51% 29.96 in 10.0 mi SSW 8.1 mph - N/A   Clear
5:54 PM 57.0 °F - 41.0 °F 55% 29.95 in 10.0 mi SSW 9.2 mph - N/A   Scattered Clouds
6:54 PM 57.0 °F - 41.0 °F 55% 29.94 in 10.0 mi SSW 11.5 mph - N/A   Clear
7:54 PM 55.9 °F - 41.0 °F 57% 29.94 in 10.0 mi SSW 5.8 mph - N/A   Scattered Clouds
8:54 PM 55.9 °F - 41.0 °F 57% 29.94 in 10.0 mi SW 8.1 mph - N/A   Overcast
9:54 PM 53.1 °F - 46.0 °F 77% 29.93 in 10.0 mi North - - 0.03 in Rain Light Rain
10:54 PM 53.1 °F - 46.0 °F 77% 29.92 in 10.0 mi North - - 0.00 in   Overcast
11:54 PM 52.0 °F - 50.0 °F 93% 29.91 in 5.0 mi North - - 0.07 in Rain Rain